QPF
0.00 0.00 0.00 0.00 0.00 0.00 0.00 0.00 0.00 0.00 0.00 0.00 0.00 0.00 0.00 0.00 0.00 0.00 0.00 0.00 0.00 0.00 0.00 0.00 0.00 0.00 0.00 0.00 0.00 0.00 0.00 0.00 0.00 0.00 0.00 0.00 0.00 0.00 0.00 0.00 0.00 0.00 0.00 0.00 0.00
0.00 0.00 0.00 0.00 0.00 0.00 0.00 0.00 0.00 0.00 0.00 0.00 0.00 0.00 0.00 0.00 0.00 0.00 0.00 0.00 0.00 0.00 0.00 0.00 0.00 0.00 0.00 0.00 0.00 0.00 0.00 0.00 0.00 0.00 0.00 0.00 0.00 0.00 0.00 0.00 0.00 0.00 0.00 0.00 0.00
0.00 0.00 0.00 0.00 0.00 0.00 0.00 0.00 0.00 0.00 0.00 0.00 0.00 0.00 0.00 0.00 0.00 0.00 0.00 0.00 0.00 0.00 0.00 0.00 0.00 0.00 0.00 0.00 0.00 0.00 0.00 0.00 0.00 0.00 0.00 0.00 0.00 0.00 0.00 0.00 0.00 0.00 0.00 0.00 0.00
0.00 0.00 0.00 0.00 0.00 0.00 0.00 0.00 0.00 0.00 0.00 0.00 0.00 0.00 0.00 0.00 0.00 0.00 0.00 0.00 0.00 0.00 0.00 0.00 0.00 0.00 0.00 0.00 0.00 0.00 0.00 0.00 0.00 0.00 0.00 0.00 0.00 0.00 0.00 0.00 0.00 0.00 0.00 0.00 0.00
0.00 0.00 0.00 0.00 0.00 0.00 0.00 0.00 0.00 0.00 0.00 0.00 0.00 0.00 0.00 0.00 0.00 0.00 0.00 0.00 0.00 0.00 0.00 0.00 0.00 0.00 0.00 0.00 0.00 0.00 0.00 0.00 0.00 0.00 0.00 0.00 0.00 0.00 0.00 0.00 0.00 0.00 0.00 0.00 0.00
0.00 0.00 0.00 0.00 0.00 0.00 0.00 0.00 0.00 0.00 0.00 0.00 0.00 0.00 0.00 0.00 0.00 0.00 0.00 0.00 0.00 0.00 0.00 0.00 0.00 0.00 0.00 0.00 0.00 0.00 0.00 0.00 0.00 0.00 0.00 0.00 0.00 0.00 0.00 0.00 0.00 0.00 0.00 0.00 0.00
0.00 0.00 0.00 0.00 0.00 0.00 0.00 0.00 0.00 0.00 0.00 0.00 0.00 0.00 0.00 0.00 0.00 0.00 0.00 0.00 0.00 0.00 0.00 0.00 0.00 0.00 0.00 0.00 0.00 0.00 0.00 0.00 0.00 0.00 0.00 0.00 0.00 0.00 0.00 0.00 0.00 0.00 0.00 0.00 0.00
0.00 0.00 0.00 0.00 0.00 0.00 0.00 0.00 0.00 0.00 0.00 0.00 0.00 0.00 0.00 0.00 0.00 0.00 0.00 0.00 0.00 0.00 0.00 0.00 0.00 0.00 0.00 0.00 0.00 0.00 0.00 0.00 0.00 0.00 0.00 0.00 0.00 0.00 0.00 0.00 0.00 0.00 0.00 0.00 0.00
0.00 0.00 0.00 0.00 0.00 0.00 0.00 0.00 0.00 0.00 0.00 0.00 0.00 0.00 0.00 0.00 0.00 0.00 0.00 0.00 0.00 0.00 0.00 0.00 0.00 0.00 0.00 0.00 0.00 0.00 0.00 0.00 0.00 0.00 0.00 0.00 0.00 0.00 0.00 0.00 0.00 0.00 0.00 0.00 0.00
0.00 0.00 0.00 0.00 0.00 0.00 0.00 0.00 0.00 0.00 0.00 0.00 0.00 0.00 0.00 0.00 0.00 0.00 0.00 0.00 0.00 0.00 0.00 0.00 0.00 0.00 0.00 0.00 0.00 0.00 0.00 0.00 0.00 0.00 0.00 0.00 0.00 0.00 0.00 0.00 0.00 0.00 0.00 0.00 0.00
0.00 0.00 0.00 0.00 0.00 0.00 0.00 0.00 0.00 0.00 0.00 0.00 0.00 0.00 0.00 0.00 0.00 0.00 0.00 0.00 0.00 0.00 0.00 0.00 0.00 0.00 0.00 0.00 0.00 0.00 0.00 0.00 0.00 0.00 0.00 0.00 0.00 0.00 0.00 0.00 0.00 0.00 0.00 0.00 0.00
0.00 0.00 0.00 0.00 0.00 0.00 0.00 0.00 0.00 0.00 0.00 0.00 0.00 0.00 0.00 0.00 0.00 0.00 0.00 0.00 0.00 0.00 0.00 0.00 0.00 0.00 0.00 0.00 0.00 0.00 0.00 0.00 0.00 0.00 0.00 0.00 0.00 0.00 0.00 0.00 0.00 0.00 0.00 0.00 0.00
0.00 0.00 0.00 0.00 0.00 0.00 0.00 0.00 0.00 0.00 0.00 0.00 0.00 0.00 0.00 0.00 0.00 0.00 0.00 0.00 0.00 0.00 0.00 0.00 0.00 0.00 0.00 0.00 0.00 0.00 0.00 0.00 0.00 0.00 0.00 0.00 0.00 0.00 0.00 0.00 0.00 0.00 0.00 0.00 0.00
0.00 0.00 0.00 0.00 0.00 0.00 0.00 0.00 0.00 0.00 0.00 0.00 0.00 0.00 0.00 0.00 0.00 0.00 0.00 0.00 0.00 0.00 0.00 0.00 0.00 0.00 0.00 0.00 0.00 0.00 0.00 0.00 0.00 0.00 0.00 0.00 0.00 0.00 0.00 0.00 0.00 0.00 0.00 0.00 0.00
0.00 0.00 0.00 0.00 0.00 0.00 0.00 0.00 0.00 0.01 0.00 0.00 0.00 0.00 0.00 0.00 0.00 0.00 0.00 0.00 0.00 0.00 0.00 0.00 0.00 0.00 0.00 0.00 0.00 0.00 0.00 0.00 0.00 0.00 0.00 0.00 0.00 0.00 0.00 0.00 0.00 0.00 0.00 0.00 0.00
0.00 0.00 0.00 0.00 0.00 0.00 0.00 0.00 0.01 0.02 0.00 0.00 0.00 0.00 0.00 0.00 0.00 0.00 0.00 0.00 0.00 0.00 0.00 0.00 0.00 0.00 0.00 0.00 0.00 0.00 0.00 0.00 0.00 0.00 0.00 0.00 0.00 0.00 0.00 0.00 0.00 0.00 0.00 0.00 0.00
0.00 0.00 0.00 0.00 0.00 0.00 0.00 0.02 0.03 0.01 0.00 0.00 0.00 0.00 0.00 0.00 0.00 0.00 0.00 0.00 0.00 0.00 0.00 0.00 0.00 0.00 0.00 0.00 0.00 0.00 0.00 0.00 0.00 0.00 0.00 0.00 0.00 0.00 0.00 0.00 0.00 0.00 0.00 0.00 0.00
0.00 0.00 0.00 0.00 0.00 0.00 0.00 0.02 0.01 0.00 0.00 0.00 0.00 0.00 0.00 0.00 0.00 0.00 0.00 0.02 0.00 0.00 0.00 0.00 0.00 0.00 0.00 0.00 0.00 0.00 0.00 0.00 0.00 0.00 0.00 0.00 0.00 0.00 0.00 0.00 0.00 0.00 0.00 0.00 0.00
0.00 0.00 0.00 0.00 0.00 0.00 0.01 0.02 0.00 0.00 0.01 0.00 0.00 0.00 0.00 0.00 0.00 0.00 0.00 0.01 0.03 0.00 0.00 0.00 0.00 0.00 0.00 0.00 0.00 0.00 0.00 0.00 0.00 0.00 0.00 0.00 0.00 0.00 0.00 0.00 0.00 0.00 0.00 0.00 0.00
0.00 0.00 0.00 0.00 0.00 0.01 0.01 0.01 0.01 0.00 0.00 0.01 0.03 0.01 0.01 0.00 0.00 0.01 0.00 0.01 0.01 0.00 0.00 0.00 0.00 0.00 0.00 0.00 0.00 0.00 0.00 0.00 0.00 0.00 0.00 0.00 0.00 0.00 0.00 0.00 0.00 0.00 0.00 0.00 0.00
0.00 0.00 0.00 0.00 0.00 0.01 0.02 0.01 0.00 0.00 0.01 0.02 0.03 0.03 0.03 0.01 0.01 0.03 0.01 0.01 0.01 0.00 0.00 0.00 0.00 0.00 0.00 0.00 0.00 0.00 0.00 0.00 0.00 0.00 0.00 0.00 0.00 0.00 0.00 0.00 0.00 0.00 0.00 0.00 0.00
0.00 0.00 0.00 0.00 0.02 0.01 0.01 0.00 0.00 0.00 0.02 0.03 0.03 0.05 0.05 0.03 0.01 0.02 0.01 0.01 0.00 0.00 0.00 0.00 0.00 0.00 0.00 0.00 0.00 0.00 0.00 0.00 0.00 0.00 0.00 0.00 0.00 0.00 0.00 0.00 0.00 0.00 0.00 0.00 0.00
0.00 0.00 0.00 0.00 0.01 0.00 0.00 0.00 0.00 0.01 0.01 0.04 0.04 0.03 0.02 0.02 0.03 0.05 0.02 0.01 0.00 0.00 0.00 0.00 0.00 0.00 0.00 0.00 0.00 0.00 0.00 0.00 0.00 0.00 0.00 0.00 0.00 0.00 0.00 0.00 0.00 0.00 0.00 0.00 0.00
0.00 0.00 0.00 0.00 0.01 0.00 0.00 0.00 0.00 0.00 0.01 0.03 0.03 0.06 0.04 0.04 0.05 0.04 0.02 0.01 0.00 0.01 0.01 0.01 0.00 0.00 0.00 0.00 0.00 0.00 0.00 0.00 0.00 0.00 0.00 0.00 0.00 0.00 0.00 0.00 0.00 0.00 0.00 0.00 0.00
0.00 0.00 0.00 0.00 0.01 0.01 0.01 0.00 0.00 0.01 0.01 0.01 0.05 0.05 0.02 0.02 0.02 0.04 0.01 0.01 0.01 0.01 0.00 0.00 0.00 0.00 0.00 0.00 0.00 0.00 0.00 0.00 0.00 0.00 0.00 0.00 0.00 0.00 0.00 0.00 0.00 0.00 0.00 0.00 0.00
0.00 0.00 0.01 0.01 0.00 0.00 0.00 0.00 0.00 0.01 0.01 0.02 0.03 0.04 0.02 0.01 0.01 0.00 0.00 0.02 0.00 0.01 0.01 0.00 0.00 0.00 0.00 0.00 0.00 0.00 0.00 0.00 0.00 0.00 0.00 0.00 0.00 0.00 0.00 0.00 0.00 0.00 0.00 0.00 0.00
0.00 0.01 0.02 0.00 0.00 0.00 0.01 0.01 0.01 0.01 0.01 0.02 0.02 0.02 0.00 0.00 0.00 0.00 0.00 0.00 0.00 0.00 0.01 0.01 0.00 0.00 0.00 0.00 0.00 0.00 0.00 0.00 0.00 0.00 0.00 0.00 0.00 0.00 0.00 0.00 0.00 0.00 0.00 0.00 0.00
MSLP
1021.86 1021.45 1021.11 1020.93 1020.84 1020.60 1020.26 1020.00 1019.71 1019.42 1018.83 1018.44 1018.06 1017.88 1017.44 1016.91 1016.23 1014.83 1013.34 1012.10 1012.08 1012.39 1012.53 1012.04 1011.87 1011.73 1011.49 1010.54 1009.65 1009.04 1007.48 1005.63 1004.89 1004.36 1004.39 1004.39 1004.74 1004.82 1005.20 1004.74 1004.50 1004.64 1004.63 1004.50 1004.90
1022.21 1021.87 1021.56 1021.23 1020.84 1020.38 1020.15 1019.82 1019.60 1019.41 1019.10 1018.72 1018.44 1018.04 1017.66 1017.08 1015.60 1013.24 1011.51 1011.73 1011.99 1011.99 1011.89 1011.25 1010.80 1010.84 1010.39 1009.38 1008.98 1008.36 1006.14 1005.01 1004.58 1004.32 1004.42 1004.42 1004.63 1004.70 1005.08 1004.71 1004.18 1004.15 1003.96 1004.02 1004.34
1022.39 1021.97 1021.46 1021.00 1020.60 1020.19 1019.94 1019.70 1019.31 1019.26 1019.04 1018.69 1018.42 1018.13 1017.67 1016.93 1014.37 1010.45 1011.10 1011.17 1011.36 1011.36 1010.83 1010.51 1009.86 1009.87 1009.25 1008.61 1007.86 1007.06 1004.97 1004.40 1004.10 1004.34 1004.63 1004.80 1004.66 1004.58 1004.26 1004.18 1003.91 1003.79 1003.68 1003.80 1003.77
1022.46 1022.08 1021.66 1021.29 1020.91 1020.53 1020.21 1019.88 1019.53 1019.19 1018.87 1018.73 1018.53 1018.23 1017.56 1016.15 1012.35 1010.12 1011.11 1011.10 1010.43 1010.18 1010.44 1009.83 1009.50 1008.78 1008.43 1007.36 1007.29 1006.23 1004.96 1004.55 1004.19 1003.99 1004.48 1004.76 1004.49 1003.99 1003.85 1004.11 1003.93 1003.94 1003.74 1003.51 1003.14
1022.38 1021.92 1021.58 1021.20 1020.78 1020.35 1019.95 1019.59 1019.27 1018.93 1018.68 1018.49 1018.35 1018.15 1017.11 1014.89 1011.28 1010.28 1011.05 1010.90 1010.01 1010.09 1009.21 1008.39 1008.28 1007.68 1007.10 1006.81 1006.66 1004.95 1004.95 1004.48 1004.24 1004.65 1004.62 1004.78 1004.22 1003.65 1003.21 1003.66 1003.64 1003.69 1003.17 1002.82 1002.54
1022.30 1021.92 1021.53 1021.05 1020.57 1020.11 1019.65 1019.24 1018.84 1018.44 1018.12 1017.99 1018.02 1017.99 1016.63 1013.65 1011.16 1010.87 1011.05 1010.74 1010.16 1009.45 1008.91 1008.46 1007.63 1007.33 1006.40 1005.80 1005.31 1004.74 1004.47 1004.44 1004.57 1004.22 1004.23 1004.06 1003.53 1003.47 1002.80 1003.14 1002.94 1002.66 1002.34 1002.14 1001.84
1022.11 1021.72 1021.24 1020.74 1020.24 1019.74 1019.25 1018.74 1018.31 1017.91 1017.59 1017.45 1017.27 1017.08 1015.53 1012.73 1011.30 1011.04 1010.99 1010.67 1010.46 1009.80 1008.67 1008.19 1007.69 1007.40 1006.37 1005.91 1005.08 1004.72 1004.49 1004.18 1004.15 1004.02 1003.62 1004.03 1002.55 1002.34 1002.31 1002.48 1002.16 1001.79 1001.60 1001.44 1001.26
1021.84 1021.41 1020.95 1020.40 1019.87 1019.31 1018.73 1018.17 1017.71 1017.21 1016.68 1016.51 1016.69 1016.41 1013.18 1011.28 1010.98 1010.88 1010.64 1010.16 1010.22 1010.35 1009.56 1008.41 1008.19 1007.55 1006.53 1005.98 1005.28 1004.56 1004.18 1003.02 1003.03 1003.43 1003.57 1004.09 1000.20 1001.22 1001.20 1001.12 1000.83 1001.11 1000.92 1000.70 1000.60
1021.59 1021.09 1020.61 1020.05 1019.51 1018.91 1018.26 1017.53 1016.91 1016.32 1015.95 1015.97 1016.03 1015.09 1011.59 1011.10 1011.03 1010.46 1010.45 1009.83 1009.23 1009.23 1009.40 1009.08 1008.46 1007.02 1006.61 1005.92 1005.01 1003.53 1001.72 1001.64 1002.20 1002.21 1002.40 1002.52 1000.18 1000.84 1000.43 1000.65 1000.84 1000.79 1000.44 1000.12 999.86
1021.32 1020.80 1020.27 1019.69 1019.13 1018.47 1017.65 1016.43 1015.73 1015.98 1015.35 1014.92 1014.55 1014.24 1011.22 1009.94 1009.99 1009.99 1009.61 1009.56 1009.16 1008.37 1008.47 1008.06 1007.25 1006.16 1005.38 1003.91 1000.75 1001.99 1001.77 1001.90 1000.90 1001.03 1002.08 1001.59 1000.25 1000.65 1000.27 1000.10 1000.50 1000.13 999.80 999.49 999.12
1020.96 1020.49 1019.98 1019.44 1018.92 1018.30 1017.13 1014.92 1014.84 1014.16 1013.75 1012.66 1011.58 1011.00 1009.74 1009.52 1009.48 1009.36 1009.00 1008.73 1008.45 1007.73 1005.93 1006.08 1005.69 1002.74 1000.40 1002.08 1002.25 1002.16 1001.16 1000.40 1000.36 1000.79 1001.18 1000.76 1000.13 999.80 999.80 999.58 999.76 999.44 999.00 998.59 998.31
1020.89 1020.35 1019.78 1019.19 1018.56 1017.99 1016.98 1015.60 1015.90 1016.13 1013.70 1011.58 1010.73 1010.48 1009.94 1009.84 1009.34 1008.58 1008.97 1008.17 1007.16 1005.81 1005.85 1004.80 1002.38 998.35 1001.93 1002.11 1002.00 1001.77 1001.14 1000.09 1000.49 1000.78 1000.99 1000.68 1000.10 999.89 999.68 999.13 998.95 998.56 997.95 997.57 997.51
1020.77 1020.25 1019.67 1019.11 1018.37 1017.82 1016.73 1016.26 1016.12 1015.91 1014.05 1010.15 1009.46 1009.12 1008.71 1008.76 1008.24 1007.19 1007.41 1006.85 1005.92 1005.10 1003.65 1001.51 997.14 1001.61 1000.64 1000.82 1000.74 1000.28 1000.50 1000.82 1000.97 1001.62 1001.36 1001.35 1000.13 999.71 998.99 998.05 997.50 997.08 997.01 996.93 996.86
1020.46 1019.93 1019.39 1018.87 1018.01 1017.02 1016.05 1016.41 1016.26 1016.13 1013.71 1008.96 1008.51 1008.14 1007.91 1008.11 1007.41 1006.69 1006.64 1006.15 1005.21 1004.09 1003.26 1001.67 1000.33 999.42 999.70 998.90 999.66 999.14 1000.73 1001.53 1001.62 1001.85 1000.44 1001.03 998.52 998.12 997.68 996.85 996.51 996.42 996.24 995.78 995.88
1020.20 1019.65 1019.17 1018.87 1017.97 1016.94 1016.20 1016.30 1016.09 1015.76 1011.89 1008.48 1007.80 1007.71 1007.15 1006.96 1006.36 1005.25 1005.43 1005.82 1004.44 1003.41 1002.70 999.24 999.53 998.98 997.94 996.75 999.31 998.89 1000.55 1001.13 1001.45 1001.18 1001.08 1000.49 999.36 997.14 996.90 995.78 995.26 995.15 994.88 994.80 995.10
1019.88 1019.27 1018.78 1017.13 1017.75 1017.07 1016.53 1016.38 1015.81 1014.58 1009.99 1008.01 1007.50 1007.48 1006.95 1006.22 1005.72 1005.27 1005.09 1005.21 1004.79 1004.05 1002.19 1000.29 999.15 998.46 996.77 998.30 998.68 999.81 1000.46 1000.84 1000.89 1000.65 999.58 999.42 998.72 996.44 995.04 994.28 994.09 993.79 993.78 993.79 995.18
1019.37 1018.78 1018.41 1017.89 1017.07 1016.99 1016.51 1015.61 1014.57 1012.09 1009.52 1008.55 1008.37 1007.96 1007.21 1006.15 1005.48 1005.33 1004.88 1004.27 1004.01 1003.27 1001.67 1000.29 999.06 998.28 997.33 997.37 998.14 999.00 999.48 999.22 999.49 998.90 998.11 998.03 997.11 995.21 994.05 993.58 993.41 993.49 993.43 994.51 995.70
1018.99 1018.49 1018.31 1017.48 1017.28 1017.21 1016.50 1015.17 1013.20 1010.95 1010.32 1009.67 1009.16 1008.60 1007.24 1006.18 1005.59 1006.14 1005.18 1004.53 1003.21 1002.96 1001.06 1000.22 998.47 997.50 996.52 995.68 995.79 996.81 997.31 996.43 996.42 996.79 996.72 996.13 995.51 994.12 993.73 993.04 992.60 992.89 993.45 994.25 995.64
1018.68 1017.50 1016.98 1017.37 1017.17 1017.06 1016.14 1014.44 1012.03 1011.53 1011.32 1010.65 1009.75 1008.06 1006.69 1006.27 1006.63 1006.35 1005.95 1006.70 1005.42 1003.21 1002.01 999.87 997.42 996.25 995.99 995.92 995.41 995.74 995.32 995.74 995.76 996.36 995.95 994.56 994.75 994.08 993.22 992.55 992.25 992.44 993.11 994.13 995.48
1018.17 1017.33 1017.07 1017.58 1017.64 1017.31 1016.23 1014.35 1012.86 1012.35 1011.79 1011.00 1009.80 1008.79 1007.78 1006.94 1006.83 1006.26 1007.15 1008.66 1008.09 1006.14 1004.63 1001.61 998.06 995.49 995.77 995.24 994.82 994.32 995.70 995.62 995.32 995.17 995.00 994.32 994.01 992.86 992.19 991.54 991.66 991.92 992.82 994.22 995.56
1017.86 1016.49 1017.09 1017.53 1017.48 1016.75 1015.62 1013.89 1013.22 1012.57 1012.13 1011.40 1010.27 1009.54 1008.78 1007.83 1007.23 1007.08 1008.06 1008.81 1009.26 1007.52 1005.64 1003.18 1000.08 995.92 995.14 993.84 992.76 993.50 993.81 994.51 994.89 994.80 994.40 993.97 993.27 992.76 992.50 991.51 991.39 991.77 992.82 994.23 995.39
1017.77 1015.97 1017.00 1017.12 1017.07 1016.35 1015.56 1014.81 1014.15 1012.67 1011.93 1011.25 1010.70 1009.98 1009.29 1008.79 1007.78 1007.25 1007.89 1008.42 1009.11 1008.27 1006.13 1004.02 1001.17 997.26 994.25 993.94 993.35 993.15 993.13 994.08 993.91 994.49 994.46 993.99 993.14 992.63 992.27 992.01 992.35 991.97 993.15 994.30 995.26
1018.09 1016.95 1016.90 1016.82 1016.56 1016.36 1015.63 1014.76 1013.53 1012.98 1012.07 1011.56 1010.87 1010.19 1009.66 1008.95 1008.30 1007.95 1008.14 1008.42 1008.85 1008.48 1007.31 1005.66 1001.79 997.69 994.72 994.30 993.64 992.76 993.48 993.77 994.19 993.75 994.04 993.96 993.07 992.19 992.32 992.20 992.67 992.81 993.71 994.60 995.25
1017.98 1016.53 1016.11 1016.60 1016.96 1016.89 1015.80 1014.42 1013.41 1012.94 1012.20 1011.88 1010.97 1010.35 1009.70 1008.81 1008.23 1008.08 1008.46 1009.54 1009.29 1008.52 1007.74 1006.37 1002.54 998.41 995.19 993.87 993.38 992.87 993.03 993.35 993.89 993.46 993.34 993.12 992.80 992.15 992.15 992.32 992.92 993.56 994.19 994.73 995.48
1018.65 1017.57 1018.05 1016.93 1016.80 1016.88 1016.18 1015.29 1014.21 1013.48 1012.39 1011.74 1010.87 1010.53 1009.77 1009.07 1008.31 1008.21 1008.60 1008.86 1009.03 1008.47 1007.38 1005.53 1002.25 999.62 997.60 996.28 995.07 993.13 993.07 992.98 993.48 993.58 993.08 992.97 993.00 992.50 991.86 992.65 993.27 993.81 994.34 994.85 995.41
1019.54 1019.59 1018.52 1017.81 1017.20 1016.71 1015.90 1014.99 1014.44 1013.85 1013.75 1012.22 1011.29 1010.50 1010.00 1009.28 1008.72 1007.80 1007.90 1008.05 1007.62 1007.39 1006.34 1005.07 1002.29 1000.02 998.31 997.20 995.95 994.10 993.26 993.32 993.67 993.74 993.56 993.53 992.95 992.68 992.77 993.32 993.77 994.11 994.60 994.80 995.21
1020.02 1019.86 1019.65 1018.06 1017.22 1016.75 1015.86 1015.51 1015.02 1014.62 1013.81 1012.86 1012.14 1011.28 1009.98 1008.70 1008.61 1008.16 1007.87 1007.52 1007.24 1007.06 1006.37 1005.37 1003.80 1000.56 997.88 997.06 996.25 995.15 993.57 993.69 994.15 994.23 994.32 993.50 993.52 993.65 993.71 994.00 994.19 994.61 994.73 994.65 995.03
Thickness
5621 5624 5628 5631 5633 5636 5640 5642 5645 5648 5655 5660 5666 5670 5677 5684 5692 5707 5718 5731 5728 5730 5729 5735 5737 5738 5741 5743 5755 5759 5737 5744 5761 5768 5775 5792 5778 5785 5791 5783 5792 5793 5790 5794 5797
5614 5615 5616 5619 5622 5627 5631 5636 5638 5639 5643 5648 5652 5658 5664 5672 5687 5702 5727 5726 5721 5724 5726 5727 5727 5731 5728 5739 5743 5737 5742 5752 5781 5782 5774 5781 5777 5777 5768 5773 5783 5786 5798 5799 5793
5606 5609 5613 5616 5619 5621 5623 5625 5628 5631 5635 5639 5643 5646 5653 5660 5682 5716 5719 5722 5720 5720 5728 5729 5731 5727 5722 5737 5739 5745 5743 5773 5775 5780 5777 5766 5769 5778 5769 5761 5782 5779 5785 5789 5789
5599 5601 5603 5605 5607 5610 5612 5614 5617 5619 5623 5627 5630 5635 5643 5655 5676 5710 5709 5712 5721 5725 5715 5720 5717 5713 5714 5722 5738 5729 5756 5761 5768 5780 5764 5752 5770 5763 5772 5769 5788 5785 5785 5784 5784
5591 5593 5594 5597 5599 5601 5603 5606 5608 5612 5614 5616 5618 5623 5635 5650 5678 5698 5696 5703 5710 5714 5714 5716 5713 5716 5708 5723 5728 5735 5739 5754 5761 5757 5755 5755 5753 5761 5768 5782 5787 5779 5782 5781 5782
5583 5583 5585 5587 5589 5592 5595 5598 5601 5605 5608 5610 5609 5610 5624 5641 5677 5679 5680 5689 5698 5704 5706 5708 5709 5717 5719 5721 5723 5741 5737 5739 5739 5748 5750 5745 5750 5759 5771 5783 5777 5777 5777 5781 5781
5574 5574 5575 5577 5579 5582 5585 5588 5592 5596 5598 5599 5602 5605 5617 5642 5660 5665 5668 5673 5681 5689 5696 5706 5709 5704 5716 5706 5729 5726 5714 5724 5730 5738 5739 5746 5735 5745 5771 5775 5768 5772 5776 5778 5779
5564 5564 5565 5567 5568 5570 5573 5577 5581 5585 5589 5591 5590 5594 5621 5644 5647 5652 5658 5663 5667 5669 5678 5694 5697 5695 5699 5709 5706 5706 5710 5701 5729 5732 5735 5728 5736 5762 5776 5771 5767 5769 5773 5775 5776
5555 5554 5554 5555 5556 5558 5561 5565 5569 5574 5576 5577 5578 5586 5616 5628 5629 5639 5642 5646 5656 5661 5665 5671 5676 5684 5688 5681 5682 5701 5698 5709 5714 5737 5730 5726 5735 5758 5773 5762 5752 5760 5767 5771 5774
5544 5543 5542 5542 5542 5544 5547 5555 5559 5558 5561 5565 5570 5574 5600 5612 5617 5623 5633 5632 5635 5649 5649 5658 5664 5667 5678 5686 5694 5693 5692 5700 5714 5734 5720 5718 5730 5743 5756 5752 5744 5753 5761 5767 5770
5531 5529 5527 5526 5525 5526 5531 5546 5552 5556 5553 5564 5573 5579 5591 5595 5604 5606 5617 5621 5624 5633 5647 5657 5648 5673 5710 5700 5700 5700 5706 5708 5724 5734 5717 5715 5718 5735 5746 5744 5740 5747 5754 5763 5770
5517 5514 5510 5505 5504 5503 5505 5513 5508 5506 5529 5545 5550 5557 5564 5566 5575 5586 5595 5599 5612 5625 5636 5639 5653 5724 5700 5692 5689 5690 5695 5706 5720 5724 5715 5708 5706 5723 5729 5733 5743 5745 5757 5765 5771
5499 5493 5487 5481 5480 5479 5481 5481 5478 5479 5495 5534 5533 5538 5546 5549 5557 5575 5580 5587 5601 5611 5631 5647 5714 5687 5694 5685 5687 5696 5691 5696 5695 5698 5702 5690 5688 5704 5724 5741 5752 5758 5763 5766 5771
5481 5473 5467 5463 5465 5465 5469 5460 5457 5457 5473 5519 5519 5523 5529 5528 5534 5557 5565 5573 5586 5599 5616 5633 5680 5682 5679 5690 5695 5687 5697 5688 5685 5675 5673 5695 5669 5707 5724 5733 5742 5746 5754 5770 5774
5464 5457 5451 5445 5449 5452 5451 5446 5445 5447 5484 5501 5505 5514 5522 5521 5528 5540 5556 5555 5570 5587 5597 5653 5650 5660 5676 5702 5693 5689 5692 5686 5682 5675 5670 5679 5670 5707 5723 5724 5736 5747 5761 5773 5780
5449 5445 5442 5448 5436 5435 5434 5432 5436 5446 5481 5496 5500 5498 5504 5513 5518 5529 5534 5544 5554 5559 5589 5627 5652 5662 5690 5686 5694 5690 5679 5679 5679 5675 5657 5680 5682 5699 5721 5733 5742 5756 5766 5776 5772
5441 5439 5435 5432 5433 5425 5422 5429 5439 5457 5484 5484 5477 5484 5491 5501 5507 5513 5522 5528 5536 5540 5563 5601 5620 5650 5672 5670 5682 5676 5669 5660 5649 5655 5655 5700 5689 5712 5735 5745 5750 5753 5765 5764 5761
5436 5434 5430 5429 5421 5414 5419 5431 5435 5466 5462 5467 5465 5470 5481 5497 5500 5498 5513 5519 5545 5547 5579 5577 5595 5632 5664 5675 5678 5675 5677 5679 5655 5662 5681 5713 5684 5717 5742 5755 5764 5766 5766 5766 5757
5434 5436 5436 5425 5418 5415 5423 5429 5460 5457 5453 5451 5457 5470 5486 5491 5487 5493 5501 5487 5513 5546 5555 5580 5606 5645 5656 5672 5683 5675 5677 5710 5691 5689 5685 5715 5713 5730 5743 5752 5760 5762 5764 5760 5756
5437 5437 5434 5421 5414 5412 5422 5430 5447 5447 5446 5449 5453 5463 5468 5479 5479 5493 5487 5457 5469 5501 5522 5561 5587 5637 5647 5668 5680 5688 5697 5674 5688 5662 5665 5696 5702 5715 5737 5751 5759 5763 5761 5757 5753
5440 5447 5431 5418 5413 5419 5423 5444 5442 5444 5442 5442 5450 5453 5459 5467 5477 5482 5472 5468 5453 5487 5516 5547 5573 5622 5636 5644 5671 5677 5678 5686 5690 5693 5678 5681 5702 5736 5735 5754 5759 5765 5762 5755 5752
5442 5454 5431 5422 5416 5421 5420 5427 5427 5439 5443 5443 5446 5450 5453 5458 5470 5480 5473 5474 5467 5478 5502 5532 5561 5586 5630 5662 5680 5686 5686 5682 5675 5670 5694 5696 5701 5743 5746 5754 5753 5763 5759 5756 5754
5440 5443 5434 5427 5417 5414 5422 5425 5435 5433 5439 5438 5441 5449 5453 5457 5461 5470 5472 5475 5472 5474 5486 5513 5559 5593 5625 5641 5660 5669 5676 5684 5690 5696 5683 5680 5696 5747 5747 5750 5750 5752 5752 5751 5751
5447 5451 5447 5432 5422 5411 5417 5429 5434 5434 5437 5436 5441 5446 5450 5457 5465 5467 5466 5449 5455 5469 5476 5499 5546 5586 5626 5641 5658 5657 5669 5679 5677 5674 5690 5698 5705 5729 5739 5741 5744 5744 5746 5748 5746
5442 5446 5428 5435 5426 5416 5418 5417 5420 5417 5437 5440 5443 5442 5448 5449 5460 5455 5457 5461 5452 5463 5480 5508 5550 5580 5595 5607 5626 5654 5661 5670 5667 5684 5689 5702 5704 5721 5742 5738 5739 5744 5744 5743 5742
5432 5420 5429 5428 5428 5423 5423 5425 5422 5421 5408 5429 5437 5443 5445 5445 5450 5459 5463 5462 5473 5482 5492 5513 5548 5572 5582 5602 5615 5635 5658 5668 5673 5686 5693 5700 5705 5734 5738 5738 5735 5738 5737 5740 5741
5429 5421 5411 5426 5425 5418 5422 5416 5409 5406 5410 5420 5419 5422 5438 5452 5449 5454 5459 5469 5477 5480 5488 5502 5518 5562 5584 5606 5610 5614 5650 5661 5668 5685 5689 5695 5711 5722 5720 5722 5727 5731 5735 5740 5742